owner,sensor,date,latitude,longitude,vertical_datum,wind_speed,wind_to_direction,wind_speed_of_gust,qcFlag 
TCOON,ioos:station:TCOON:057:1,2009-06-01T00:00:00Z,28.4460,-96.3961,0.0,7.1,127.0,8.5,'11111222,11111222,11111222' 
TCOON,ioos:station:TCOON:057:1,2009-06-01T01:00:00Z,28.4460,-96.3961,0.0,7.5,146.0,8.5,'11111222,11111222,11111222' 
TCOON,ioos:station:TCOON:057:1,2009-06-01T03:00:00Z,28.4460,-96.3961,0.0,6.8,130.0,7.8,'11111222,11111222,11111222' 
TCOON,ioos:station:TCOON:057:1,2009-06-01T04:00:00Z,28.4460,-96.3961,0.0,6.1,124.0,7.0,'11111222,11111222,11111222' 
TCOON,ioos:station:TCOON:057:1,2009-06-01T05:00:00Z,28.4460,-96.3961,0.0,5.5,142.0,6.6,'11111222,11111222,11111222' 
TCOON,ioos:station:TCOON:057:1,2009-06-01T06:00:00Z,28.4460,-96.3961,0.0,6.0,141.0,7.5,'11111222,11111222,11111222' 
TCOON,ioos:station:TCOON:057:1,2009-06-01T07:00:00Z,28.4460,-96.3961,0.0,7.5,146.0,8.7,'11111222,11111222,11111222' 
TCOON,ioos:station:TCOON:057:1,2009-06-01T08:00:00Z,28.4460,-96.3961,0.0,5.9,140.0,6.6,'11111222,11111222,11111222' 
TCOON,ioos:station:TCOON:057:1,2009-06-01T09:00:00Z,28.4460,-96.3961,0.0,5.5,143.0,6.2,'11111222,11111222,11111222' 
TCOON,ioos:station:TCOON:057:1,2009-06-01T10:00:00Z,28.4460,-96.3961,0.0,7.2,135.0,7.9,'11111222,11111222,11111222' 
TCOON,ioos:station:TCOON:057:1,2009-06-01T11:00:00Z,28.4460,-96.3961,0.0,5.9,140.0,6.5,'11111222,11111222,11111222' 
TCOON,ioos:station:TCOON:057:1,2009-06-01T12:00:00Z,28.4460,-96.3961,0.0,6.1,133.0,7.2,'11111222,11111222,11111222' 
TCOON,ioos:station:TCOON:057:1,2009-06-01T13:00:00Z,28.4460,-96.3961,0.0,5.1,121.0,5.9,'11111222,11111222,11111222' 
TCOON,ioos:station:TCOON:057:1,2009-06-01T14:00:00Z,28.4460,-96.3961,0.0,4.5,139.0,5.5,'11111222,11111222,11111222' 
TCOON,ioos:station:TCOON:057:1,2009-06-01T15:00:00Z,28.4460,-96.3961,0.0,5.8,117.0,7.2,'11111222,11111222,11111222' 
TCOON,ioos:station:TCOON:057:1,2009-06-01T16:00:00Z,28.4460,-96.3961,0.0,4.9,125.0,5.6,'11111222,11111222,11111222' 
TCOON,ioos:station:TCOON:057:1,2009-06-01T17:00:00Z,28.4460,-96.3961,0.0,4.5,132.0,5.4,'11111222,11111222,11111222' 
TCOON,ioos:station:TCOON:057:1,2009-06-01T18:00:00Z,28.4460,-96.3961,0.0,4.6,124.0,5.7,'11111222,11111222,11111222' 
TCOON,ioos:station:TCOON:057:1,2009-06-01T19:00:00Z,28.4460,-96.3961,0.0,5.4,111.0,6.3,'11111222,11111222,11111222' 
TCOON,ioos:station:TCOON:057:1,2009-06-01T20:00:00Z,28.4460,-96.3961,0.0,7.2,129.0,8.4,'11111222,11111222,11111222' 
TCOON,ioos:station:TCOON:057:1,2009-06-01T21:00:00Z,28.4460,-96.3961,0.0,7.0,126.0,8.0,'11111222,11111222,11111222' 
TCOON,ioos:station:TCOON:057:1,2009-06-01T22:00:00Z,28.4460,-96.3961,0.0,6.3,128.0,7.0,'11111222,11111222,11111222' 
TCOON,ioos:station:TCOON:057:1,2009-06-01T23:00:00Z,28.4460,-96.3961,0.0,7.3,118.0,8.5,'11111222,11111222,11111222' 
TCOON,ioos:station:TCOON:057:1,2009-06-02T00:00:00Z,28.4460,-96.3961,0.0,7.5,127.0,8.3,'11111222,11111222,11111222' 
TCOON,ioos:station:TCOON:057:1,2009-06-02T01:00:00Z,28.4460,-96.3961,0.0,8.8,131.0,9.7,'11111222,11111222,11111222' 
TCOON,ioos:station:TCOON:057:1,2009-06-02T02:00:00Z,28.4460,-96.3961,0.0,8.2,141.0,9.2,'11111222,11111222,11111222' 
TCOON,ioos:station:TCOON:057:1,2009-06-02T03:00:00Z,28.4460,-96.3961,0.0,9.8,129.0,11.4,'11111222,11111222,11111222' 
TCOON,ioos:station:TCOON:057:1,2009-06-02T04:00:00Z,28.4460,-96.3961,0.0,8.2,135.0,8.9,'11111222,11111222,11111222' 
TCOON,ioos:station:TCOON:057:1,2009-06-02T05:00:00Z,28.4460,-96.3961,0.0,6.9,124.0,8.7,'11111222,11111222,11111222' 
TCOON,ioos:station:TCOON:057:1,2009-06-02T06:00:00Z,28.4460,-96.3961,0.0,6.7,140.0,7.7,'11111222,11111222,11111222' 
TCOON,ioos:station:TCOON:057:1,2009-06-02T07:00:00Z,28.4460,-96.3961,0.0,6.6,145.0,7.8,'11111222,11111222,11111222' 
TCOON,ioos:station:TCOON:057:1,2009-06-02T08:00:00Z,28.4460,-96.3961,0.0,6.4,153.0,7.8,'11111222,11111222,11111222' 
TCOON,ioos:station:TCOON:057:1,2009-06-02T09:00:00Z,28.4460,-96.3961,0.0,6.2,160.0,7.0,'11111222,11111222,11111222' 
TCOON,ioos:station:TCOON:057:1,2009-06-02T10:00:00Z,28.4460,-96.3961,0.0,5.1,149.0,5.6,'11111222,11111222,11111222' 
TCOON,ioos:station:TCOON:057:1,2009-06-02T11:00:00Z,28.4460,-96.3961,0.0,6.8,154.0,7.8,'11111222,11111222,11111222' 
TCOON,ioos:station:TCOON:057:1,2009-06-02T12:00:00Z,28.4460,-96.3961,0.0,6.1,148.0,6.9,'11111222,11111222,11111222' 
TCOON,ioos:station:TCOON:057:1,2009-06-02T13:00:00Z,28.4460,-96.3961,0.0,6.1,144.0,6.8,'11111222,11111222,11111222' 
TCOON,ioos:station:TCOON:057:1,2009-06-02T14:00:00Z,28.4460,-96.3961,0.0,5.3,139.0,6.4,'11111222,11111222,11111222' 
TCOON,ioos:station:TCOON:057:1,2009-06-02T15:00:00Z,28.4460,-96.3961,0.0,6.5,144.0,7.5,'11111222,11111222,11111222' 
TCOON,ioos:station:TCOON:057:1,2009-06-02T16:00:00Z,28.4460,-96.3961,0.0,5.4,145.0,6.2,'11111222,11111222,11111222' 
TCOON,ioos:station:TCOON:057:1,2009-06-02T17:00:00Z,28.4460,-96.3961,0.0,4.9,153.0,5.7,'11111222,11111222,11111222' 
TCOON,ioos:station:TCOON:057:1,2009-06-02T18:00:00Z,28.4460,-96.3961,0.0,4.5,146.0,5.3,'11111222,11111222,11111222' 
TCOON,ioos:station:TCOON:057:1,2009-06-02T19:00:00Z,28.4460,-96.3961,0.0,5.2,154.0,6.2,'11111222,11111222,11111222' 
TCOON,ioos:station:TCOON:057:1,2009-06-02T20:00:00Z,28.4460,-96.3961,0.0,6.1,154.0,7.1,'11111222,11111222,11111222' 
TCOON,ioos:station:TCOON:057:1,2009-06-02T21:00:00Z,28.4460,-96.3961,0.0,6.0,162.0,7.1,'11111222,11111222,11111222' 
TCOON,ioos:station:TCOON:057:1,2009-06-02T22:00:00Z,28.4460,-96.3961,0.0,7.5,154.0,8.9,'11111222,11111222,11111222' 
TCOON,ioos:station:TCOON:057:1,2009-06-02T23:00:00Z,28.4460,-96.3961,0.0,6.6,155.0,8.1,'11111222,11111222,11111222' 
TCOON,ioos:station:TCOON:057:1,2009-06-03T00:00:00Z,28.4460,-96.3961,0.0,7.1,138.0,8.2,'11111222,11111222,11111222' 
TCOON,ioos:station:TCOON:057:1,2009-06-03T01:00:00Z,28.4460,-96.3961,0.0,6.9,134.0,8.2,'11111222,11111222,11111222' 
TCOON,ioos:station:TCOON:057:1,2009-06-03T02:00:00Z,28.4460,-96.3961,0.0,6.7,138.0,7.9,'11111222,11111222,11111222' 
TCOON,ioos:station:TCOON:057:1,2009-06-03T03:00:00Z,28.4460,-96.3961,0.0,6.5,133.0,7.3,'11111222,11111222,11111222' 
TCOON,ioos:station:TCOON:057:1,2009-06-03T04:00:00Z,28.4460,-96.3961,0.0,5.2,145.0,5.8,'11111222,11111222,11111222' 
TCOON,ioos:station:TCOON:057:1,2009-06-03T05:00:00Z,28.4460,-96.3961,0.0,5.3,139.0,6.1,'11111222,11111222,11111222' 
TCOON,ioos:station:TCOON:057:1,2009-06-03T06:00:00Z,28.4460,-96.3961,0.0,5.7,149.0,6.4,'11111222,11111222,11111222' 
TCOON,ioos:station:TCOON:057:1,2009-06-03T07:00:00Z,28.4460,-96.3961,0.0,4.9,146.0,5.6,'11111222,11111222,11111222' 
TCOON,ioos:station:TCOON:057:1,2009-06-03T08:00:00Z,28.4460,-96.3961,0.0,4.5,165.0,4.9,'11111222,11111222,11111222' 
TCOON,ioos:station:TCOON:057:1,2009-06-03T09:00:00Z,28.4460,-96.3961,0.0,5.1,171.0,5.8,'11111222,11111222,11111222' 
TCOON,ioos:station:TCOON:057:1,2009-06-03T10:00:00Z,28.4460,-96.3961,0.0,5.6,173.0,6.4,'11111222,11111222,11111222' 
TCOON,ioos:station:TCOON:057:1,2009-06-03T11:00:00Z,28.4460,-96.3961,0.0,3.0,285.0,3.7,'11111222,11111222,11111222' 
TCOON,ioos:station:TCOON:057:1,2009-06-03T12:00:00Z,28.4460,-96.3961,0.0,3.4,309.0,4.0,'11111222,11111222,11111222' 
TCOON,ioos:station:TCOON:057:1,2009-06-03T13:00:00Z,28.4460,-96.3961,0.0,1.6,198.0,1.8,'11111222,11111222,11111222' 
TCOON,ioos:station:TCOON:057:1,2009-06-03T14:00:00Z,28.4460,-96.3961,0.0,2.9,111.0,3.3,'11111222,11111222,11111222' 
TCOON,ioos:station:TCOON:057:1,2009-06-03T15:00:00Z,28.4460,-96.3961,0.0,4.4,172.0,5.2,'11111222,11111222,11111222' 
TCOON,ioos:station:TCOON:057:1,2009-06-03T16:00:00Z,28.4460,-96.3961,0.0,5.4,222.0,6.8,'11111222,11111222,11111222' 
TCOON,ioos:station:TCOON:057:1,2009-06-03T17:00:00Z,28.4460,-96.3961,0.0,4.1,222.0,5.3,'11111222,11111222,11111222' 
TCOON,ioos:station:TCOON:057:1,2009-06-03T18:00:00Z,28.4460,-96.3961,0.0,4.2,203.0,5.0,'11111222,11111222,11111222' 
TCOON,ioos:station:TCOON:057:1,2009-06-03T19:00:00Z,28.4460,-96.3961,0.0,4.3,250.0,5.6,'11111222,11111222,11111222' 
TCOON,ioos:station:TCOON:057:1,2009-06-03T20:00:00Z,28.4460,-96.3961,0.0,2.6,199.0,3.0,'11111222,11111222,11111222' 
TCOON,ioos:station:TCOON:057:1,2009-06-03T21:00:00Z,28.4460,-96.3961,0.0,5.2,181.0,5.9,'11111222,11111222,11111222' 
TCOON,ioos:station:TCOON:057:1,2009-06-03T22:00:00Z,28.4460,-96.3961,0.0,4.8,153.0,5.3,'11111222,11111222,11111222' 
TCOON,ioos:station:TCOON:057:1,2009-06-03T23:00:00Z,28.4460,-96.3961,0.0,5.5,163.0,6.2,'11111222,11111222,11111222' 
TCOON,ioos:station:TCOON:057:1,2009-06-04T00:00:00Z,28.4460,-96.3961,0.0,4.4,147.0,4.8,'11111222,11111222,11111222' 
TCOON,ioos:station:TCOON:057:1,2009-06-04T01:00:00Z,28.4460,-96.3961,0.0,5.0,192.0,5.7,'11111222,11111222,11111222' 
TCOON,ioos:station:TCOON:057:1,2009-06-04T02:00:00Z,28.4460,-96.3961,0.0,3.6,196.0,4.6,'11111222,11111222,11111222' 
TCOON,ioos:station:TCOON:057:1,2009-06-04T03:00:00Z,28.4460,-96.3961,0.0,3.2,212.0,4.2,'11111222,11111222,11111222' 
TCOON,ioos:station:TCOON:057:1,2009-06-04T04:00:00Z,28.4460,-96.3961,0.0,5.5,205.0,7.7,'11111222,11111222,11111222' 
TCOON,ioos:station:TCOON:057:1,2009-06-04T05:00:00Z,28.4460,-96.3961,0.0,4.3,262.0,6.1,'11111222,11111222,11111222' 
TCOON,ioos:station:TCOON:057:1,2009-06-04T06:00:00Z,28.4460,-96.3961,0.0,2.7,275.0,3.6,'11111222,11111222,11111222' 
TCOON,ioos:station:TCOON:057:1,2009-06-04T07:00:00Z,28.4460,-96.3961,0.0,2.4,285.0,2.9,'11111222,11111222,11111222' 
TCOON,ioos:station:TCOON:057:1,2009-06-04T08:00:00Z,28.4460,-96.3961,0.0,4.1,303.0,4.9,'11111222,11111222,11111222' 
TCOON,ioos:station:TCOON:057:1,2009-06-04T09:00:00Z,28.4460,-96.3961,0.0,4.1,240.0,4.6,'11111222,11111222,11111222' 
TCOON,ioos:station:TCOON:057:1,2009-06-04T10:00:00Z,28.4460,-96.3961,0.0,3.7,292.0,4.1,'11111222,11111222,11111222' 
TCOON,ioos:station:TCOON:057:1,2009-06-04T11:00:00Z,28.4460,-96.3961,0.0,6.4,344.0,7.4,'11111222,11111222,11111222' 
TCOON,ioos:station:TCOON:057:1,2009-06-04T12:00:00Z,28.4460,-96.3961,0.0,5.0,342.0,5.5,'11111222,11111222,11111222' 
TCOON,ioos:station:TCOON:057:1,2009-06-04T13:00:00Z,28.4460,-96.3961,0.0,5.7,336.0,6.4,'11111222,11111222,11111222' 
TCOON,ioos:station:TCOON:057:1,2009-06-04T14:00:00Z,28.4460,-96.3961,0.0,5.1,353.0,6.6,'11111222,11111222,11111222' 
TCOON,ioos:station:TCOON:057:1,2009-06-04T15:00:00Z,28.4460,-96.3961,0.0,4.2,346.0,5.2,'11111222,11111222,11111222' 
TCOON,ioos:station:TCOON:057:1,2009-06-04T16:00:00Z,28.4460,-96.3961,0.0,3.9,352.0,4.8,'11111222,11111222,11111222' 
TCOON,ioos:station:TCOON:057:1,2009-06-04T17:00:00Z,28.4460,-96.3961,0.0,2.7,2.0,3.7,'11111222,11111222,11111222' 
TCOON,ioos:station:TCOON:057:1,2009-06-04T18:00:00Z,28.4460,-96.3961,0.0,0.8,360.0,1.3,'11111222,11144222,11111222' 
TCOON,ioos:station:TCOON:057:1,2009-06-04T19:00:00Z,28.4460,-96.3961,0.0,4.1,332.0,5.9,'11111222,11111222,11111222' 
TCOON,ioos:station:TCOON:057:1,2009-06-04T20:00:00Z,28.4460,-96.3961,0.0,5.6,323.0,6.4,'11111222,11111222,11111222' 
TCOON,ioos:station:TCOON:057:1,2009-06-04T21:00:00Z,28.4460,-96.3961,0.0,5.1,320.0,6.2,'11111222,11111222,11111222' 
TCOON,ioos:station:TCOON:057:1,2009-06-04T22:00:00Z,28.4460,-96.3961,0.0,5.2,315.0,6.0,'11111222,11111222,11111222' 
TCOON,ioos:station:TCOON:057:1,2009-06-04T23:00:00Z,28.4460,-96.3961,0.0,4.3,329.0,5.0,'11111222,11111222,11111222' 
TCOON,ioos:station:TCOON:057:1,2009-06-05T00:00:00Z,28.4460,-96.3961,0.0,4.5,338.0,5.6,'11111222,11111222,11111222' 
TCOON,ioos:station:TCOON:057:1,2009-06-05T01:00:00Z,28.4460,-96.3961,0.0,5.1,4.0,5.6,'11111222,11111222,11111222' 
TCOON,ioos:station:TCOON:057:1,2009-06-05T02:00:00Z,28.4460,-96.3961,0.0,7.3,8.0,7.9,'11111222,11111222,11111222' 
TCOON,ioos:station:TCOON:057:1,2009-06-05T03:00:00Z,28.4460,-96.3961,0.0,5.4,22.0,6.0,'11111222,11111222,11111222' 
TCOON,ioos:station:TCOON:057:1,2009-06-05T04:00:00Z,28.4460,-96.3961,0.0,5.2,19.0,5.8,'11111222,11111222,11111222' 
TCOON,ioos:station:TCOON:057:1,2009-06-05T05:00:00Z,28.4460,-96.3961,0.0,5.4,15.0,6.0,'11111222,11111222,11111222' 
TCOON,ioos:station:TCOON:057:1,2009-06-05T06:00:00Z,28.4460,-96.3961,0.0,5.4,25.0,6.4,'11111222,11111222,11111222' 
TCOON,ioos:station:TCOON:057:1,2009-06-05T07:00:00Z,28.4460,-96.3961,0.0,5.6,45.0,6.6,'11111222,11111222,11111222' 
TCOON,ioos:station:TCOON:057:1,2009-06-05T08:00:00Z,28.4460,-96.3961,0.0,7.8,52.0,8.4,'11111222,11111222,11111222' 
TCOON,ioos:station:TCOON:057:1,2009-06-05T09:00:00Z,28.4460,-96.3961,0.0,7.4,53.0,8.3,'11111222,11111222,11111222' 
TCOON,ioos:station:TCOON:057:1,2009-06-05T10:00:00Z,28.4460,-96.3961,0.0,7.4,51.0,8.6,'11111222,11111222,11111222' 
TCOON,ioos:station:TCOON:057:1,2009-06-05T11:00:00Z,28.4460,-96.3961,0.0,6.4,42.0,7.2,'11111222,11111222,11111222' 
TCOON,ioos:station:TCOON:057:1,2009-06-05T12:00:00Z,28.4460,-96.3961,0.0,5.5,48.0,6.2,'11111222,11111222,11111222' 
TCOON,ioos:station:TCOON:057:1,2009-06-05T13:00:00Z,28.4460,-96.3961,0.0,5.6,54.0,6.2,'11111222,11111222,11111222' 
TCOON,ioos:station:TCOON:057:1,2009-06-05T14:00:00Z,28.4460,-96.3961,0.0,5.6,65.0,6.5,'11111222,11111222,11111222' 
TCOON,ioos:station:TCOON:057:1,2009-06-05T15:00:00Z,28.4460,-96.3961,0.0,5.0,57.0,5.8,'11111222,11111222,11111222' 
TCOON,ioos:station:TCOON:057:1,2009-06-05T16:00:00Z,28.4460,-96.3961,0.0,3.6,58.0,4.4,'11111222,11111222,11111222' 
TCOON,ioos:station:TCOON:057:1,2009-06-05T17:00:00Z,28.4460,-96.3961,0.0,2.2,58.0,2.9,'11111222,11111222,11111222' 
TCOON,ioos:station:TCOON:057:1,2009-06-05T18:00:00Z,28.4460,-96.3961,0.0,2.4,38.0,3.3,'11111222,11111222,11111222' 
TCOON,ioos:station:TCOON:057:1,2009-06-05T19:00:00Z,28.4460,-96.3961,0.0,2.7,60.0,2.9,'11111222,11111222,11111222' 
TCOON,ioos:station:TCOON:057:1,2009-06-05T20:00:00Z,28.4460,-96.3961,0.0,2.7,93.0,3.0,'11111222,11111222,11111222' 
TCOON,ioos:station:TCOON:057:1,2009-06-05T21:00:00Z,28.4460,-96.3961,0.0,3.9,134.0,4.3,'11111222,11111222,11111222' 
TCOON,ioos:station:TCOON:057:1,2009-06-05T22:00:00Z,28.4460,-96.3961,0.0,5.3,149.0,5.8,'11111222,11111222,11111222' 
TCOON,ioos:station:TCOON:057:1,2009-06-05T23:00:00Z,28.4460,-96.3961,0.0,5.3,141.0,6.0,'11111222,11111222,11111222' 
TCOON,ioos:station:TCOON:057:1,2009-06-06T00:00:00Z,28.4460,-96.3961,0.0,5.2,143.0,5.9,'11111222,11111222,11111222' 
TCOON,ioos:station:TCOON:057:1,2009-06-06T01:00:00Z,28.4460,-96.3961,0.0,4.7,136.0,5.3,'11111222,11111222,11111222' 
TCOON,ioos:station:TCOON:057:1,2009-06-06T02:00:00Z,28.4460,-96.3961,0.0,4.6,137.0,5.4,'11111222,11111222,11111222' 
TCOON,ioos:station:TCOON:057:1,2009-06-06T03:00:00Z,28.4460,-96.3961,0.0,4.8,141.0,5.4,'11111222,11111222,11111222' 
TCOON,ioos:station:TCOON:057:1,2009-06-06T04:00:00Z,28.4460,-96.3961,0.0,5.2,166.0,5.7,'11111222,11111222,11111222' 
TCOON,ioos:station:TCOON:057:1,2009-06-06T05:00:00Z,28.4460,-96.3961,0.0,5.1,157.0,5.7,'11111222,11111222,11111222' 
TCOON,ioos:station:TCOON:057:1,2009-06-06T06:00:00Z,28.4460,-96.3961,0.0,5.1,164.0,5.8,'11111222,11111222,11111222' 
TCOON,ioos:station:TCOON:057:1,2009-06-06T07:00:00Z,28.4460,-96.3961,0.0,6.1,167.0,6.5,'11111222,11111222,11111222' 
TCOON,ioos:station:TCOON:057:1,2009-06-06T08:00:00Z,28.4460,-96.3961,0.0,5.7,160.0,6.7,'11111222,11111222,11111222' 
TCOON,ioos:station:TCOON:057:1,2009-06-06T09:00:00Z,28.4460,-96.3961,0.0,4.4,162.0,5.5,'11111222,11111222,11111222' 
TCOON,ioos:station:TCOON:057:1,2009-06-06T10:00:00Z,28.4460,-96.3961,0.0,3.1,210.0,4.0,'11111222,11111222,11111222' 
TCOON,ioos:station:TCOON:057:1,2009-06-06T11:00:00Z,28.4460,-96.3961,0.0,2.7,194.0,3.1,'11111222,11111222,11111222' 
TCOON,ioos:station:TCOON:057:1,2009-06-06T12:00:00Z,28.4460,-96.3961,0.0,3.7,151.0,4.2,'11111222,11111222,11111222' 
TCOON,ioos:station:TCOON:057:1,2009-06-06T13:00:00Z,28.4460,-96.3961,0.0,3.9,150.0,4.5,'11111222,11111222,11111222' 
TCOON,ioos:station:TCOON:057:1,2009-06-06T14:00:00Z,28.4460,-96.3961,0.0,3.7,138.0,4.5,'11111222,11111222,11111222' 
TCOON,ioos:station:TCOON:057:1,2009-06-06T15:00:00Z,28.4460,-96.3961,0.0,3.4,130.0,3.9,'11111222,11111222,11111222' 
TCOON,ioos:station:TCOON:057:1,2009-06-06T16:00:00Z,28.4460,-96.3961,0.0,4.2,138.0,5.1,'11111222,11111222,11111222' 
TCOON,ioos:station:TCOON:057:1,2009-06-06T17:00:00Z,28.4460,-96.3961,0.0,5.3,114.0,6.1,'11111222,11111222,11111222' 
TCOON,ioos:station:TCOON:057:1,2009-06-06T18:00:00Z,28.4460,-96.3961,0.0,4.7,143.0,5.5,'11111222,11111222,11111222' 
TCOON,ioos:station:TCOON:057:1,2009-06-06T19:00:00Z,28.4460,-96.3961,0.0,5.1,152.0,6.3,'11111222,11111222,11111222' 
TCOON,ioos:station:TCOON:057:1,2009-06-06T20:00:00Z,28.4460,-96.3961,0.0,6.0,134.0,7.3,'11111222,11111222,11111222' 
TCOON,ioos:station:TCOON:057:1,2009-06-06T21:00:00Z,28.4460,-96.3961,0.0,6.7,134.0,7.8,'11111222,11111222,11111222' 
TCOON,ioos:station:TCOON:057:1,2009-06-06T22:00:00Z,28.4460,-96.3961,0.0,6.6,143.0,7.5,'11111222,11111222,11111222' 
TCOON,ioos:station:TCOON:057:1,2009-06-06T23:00:00Z,28.4460,-96.3961,0.0,5.8,154.0,6.8,'11111222,11111222,11111222' 
TCOON,ioos:station:TCOON:057:1,2009-06-07T00:00:00Z,28.4460,-96.3961,0.0,6.5,152.0,7.7,'11111222,11111222,11111222' 
TCOON,ioos:station:TCOON:057:1,2009-06-07T01:00:00Z,28.4460,-96.3961,0.0,4.9,156.0,6.1,'11111222,11111222,11111222' 
TCOON,ioos:station:TCOON:057:1,2009-06-07T02:00:00Z,28.4460,-96.3961,0.0,5.1,161.0,6.2,'11111222,11111222,11111222' 
TCOON,ioos:station:TCOON:057:1,2009-06-07T03:00:00Z,28.4460,-96.3961,0.0,7.3,149.0,8.2,'11111222,11111222,11111222' 
TCOON,ioos:station:TCOON:057:1,2009-06-07T04:00:00Z,28.4460,-96.3961,0.0,4.6,154.0,6.2,'11111222,11111222,11111222' 
TCOON,ioos:station:TCOON:057:1,2009-06-07T05:00:00Z,28.4460,-96.3961,0.0,5.2,147.0,6.0,'11111222,11111222,11111222' 
TCOON,ioos:station:TCOON:057:1,2009-06-07T06:00:00Z,28.4460,-96.3961,0.0,5.8,147.0,6.6,'11111222,11111222,11111222' 
TCOON,ioos:station:TCOON:057:1,2009-06-07T07:00:00Z,28.4460,-96.3961,0.0,6.7,152.0,7.7,'11111222,11111222,11111222' 
TCOON,ioos:station:TCOON:057:1,2009-06-07T08:00:00Z,28.4460,-96.3961,0.0,6.7,149.0,7.8,'11111222,11111222,11111222' 
TCOON,ioos:station:TCOON:057:1,2009-06-07T09:00:00Z,28.4460,-96.3961,0.0,7.7,148.0,8.3,'11111222,11111222,11111222' 
TCOON,ioos:station:TCOON:057:1,2009-06-07T10:00:00Z,28.4460,-96.3961,0.0,7.4,140.0,8.7,'11111222,11111222,11111222' 
TCOON,ioos:station:TCOON:057:1,2009-06-07T11:00:00Z,28.4460,-96.3961,0.0,7.4,149.0,8.8,'11111222,11111222,11111222' 
TCOON,ioos:station:TCOON:057:1,2009-06-07T12:00:00Z,28.4460,-96.3961,0.0,7.7,159.0,8.5,'11111222,11111222,11111222' 
TCOON,ioos:station:TCOON:057:1,2009-06-07T13:00:00Z,28.4460,-96.3961,0.0,8.8,155.0,9.8,'11111222,11111222,11111222' 
TCOON,ioos:station:TCOON:057:1,2009-06-07T14:00:00Z,28.4460,-96.3961,0.0,7.6,161.0,8.6,'11111222,11111222,11111222' 
TCOON,ioos:station:TCOON:057:1,2009-06-07T15:00:00Z,28.4460,-96.3961,0.0,7.8,169.0,9.3,'11111222,11111222,11111222' 
TCOON,ioos:station:TCOON:057:1,2009-06-07T16:00:00Z,28.4460,-96.3961,0.0,7.7,177.0,8.6,'11111222,11111222,11111222' 
TCOON,ioos:station:TCOON:057:1,2009-06-07T17:00:00Z,28.4460,-96.3961,0.0,7.1,164.0,8.5,'11111222,11111222,11111222' 
TCOON,ioos:station:TCOON:057:1,2009-06-07T18:00:00Z,28.4460,-96.3961,0.0,6.3,166.0,7.3,'11111222,11111222,11111222' 
TCOON,ioos:station:TCOON:057:1,2009-06-07T19:00:00Z,28.4460,-96.3961,0.0,6.2,165.0,7.5,'11111222,11111222,11111222' 
TCOON,ioos:station:TCOON:057:1,2009-06-07T20:00:00Z,28.4460,-96.3961,0.0,7.2,153.0,8.7,'11111222,11111222,11111222' 
TCOON,ioos:station:TCOON:057:1,2009-06-07T21:00:00Z,28.4460,-96.3961,0.0,6.0,155.0,7.2,'11111222,11111222,11111222' 
TCOON,ioos:station:TCOON:057:1,2009-06-07T22:00:00Z,28.4460,-96.3961,0.0,7.0,144.0,8.5,'11111222,11111222,11111222' 
TCOON,ioos:station:TCOON:057:1,2009-06-07T23:00:00Z,28.4460,-96.3961,0.0,6.8,133.0,8.0,'11111222,11111222,11111222' 
TCOON,ioos:station:TCOON:057:1,2009-06-08T00:00:00Z,28.4460,-96.3961,0.0,7.2,137.0,8.0,'11111222,11111222,11111222' 
TCOON,ioos:station:TCOON:057:1,2009-06-08T01:00:00Z,28.4460,-96.3961,0.0,7.3,131.0,8.6,'11111222,11111222,11111222' 
TCOON,ioos:station:TCOON:057:1,2009-06-08T02:00:00Z,28.4460,-96.3961,0.0,8.5,133.0,9.4,'11111222,11111222,11111222' 
TCOON,ioos:station:TCOON:057:1,2009-06-08T03:00:00Z,28.4460,-96.3961,0.0,7.9,135.0,9.7,'11111222,11111222,11111222' 
TCOON,ioos:station:TCOON:057:1,2009-06-08T04:00:00Z,28.4460,-96.3961,0.0,9.8,141.0,11.6,'11111222,11111222,11111222' 
TCOON,ioos:station:TCOON:057:1,2009-06-08T05:00:00Z,28.4460,-96.3961,0.0,9.5,140.0,10.8,'11111222,11111222,11111222' 
TCOON,ioos:station:TCOON:057:1,2009-06-08T06:00:00Z,28.4460,-96.3961,0.0,10.2,146.0,11.5,'11111222,11111222,11111222' 
TCOON,ioos:station:TCOON:057:1,2009-06-08T07:00:00Z,28.4460,-96.3961,0.0,9.6,154.0,11.0,'11111222,11111222,11111222' 
TCOON,ioos:station:TCOON:057:1,2009-06-08T08:00:00Z,28.4460,-96.3961,0.0,9.2,152.0,10.7,'11111222,11111222,11111222' 
TCOON,ioos:station:TCOON:057:1,2009-06-08T09:00:00Z,28.4460,-96.3961,0.0,9.5,152.0,10.9,'11111222,11111222,11111222' 
TCOON,ioos:station:TCOON:057:1,2009-06-08T10:00:00Z,28.4460,-96.3961,0.0,8.8,159.0,9.8,'11111222,11111222,11111222' 
TCOON,ioos:station:TCOON:057:1,2009-06-08T11:00:00Z,28.4460,-96.3961,0.0,8.2,161.0,9.2,'11111222,11111222,11111222' 
TCOON,ioos:station:TCOON:057:1,2009-06-08T12:00:00Z,28.4460,-96.3961,0.0,9.1,150.0,10.3,'11111222,11111222,11111222' 
TCOON,ioos:station:TCOON:057:1,2009-06-08T13:00:00Z,28.4460,-96.3961,0.0,8.6,152.0,10.0,'11111222,11111222,11111222' 
TCOON,ioos:station:TCOON:057:1,2009-06-08T14:00:00Z,28.4460,-96.3961,0.0,8.3,157.0,9.5,'11111222,11111222,11111222' 
TCOON,ioos:station:TCOON:057:1,2009-06-08T15:00:00Z,28.4460,-96.3961,0.0,8.5,167.0,9.6,'11111222,11111222,11111222' 
TCOON,ioos:station:TCOON:057:1,2009-06-08T16:00:00Z,28.4460,-96.3961,0.0,7.6,174.0,8.6,'11111222,11111222,11111222' 
TCOON,ioos:station:TCOON:057:1,2009-06-08T17:00:00Z,28.4460,-96.3961,0.0,6.0,162.0,7.0,'11111222,11111222,11111222' 
TCOON,ioos:station:TCOON:057:1,2009-06-08T18:00:00Z,28.4460,-96.3961,0.0,5.3,154.0,6.0,'11111222,11111222,11111222' 
TCOON,ioos:station:TCOON:057:1,2009-06-08T19:00:00Z,28.4460,-96.3961,0.0,5.0,160.0,6.1,'11111222,11111222,11111222' 
TCOON,ioos:station:TCOON:057:1,2009-06-08T20:00:00Z,28.4460,-96.3961,0.0,5.0,153.0,5.7,'11111222,11111222,11111222' 
TCOON,ioos:station:TCOON:057:1,2009-06-08T21:00:00Z,28.4460,-96.3961,0.0,5.4,146.0,6.1,'11111222,11111222,11111222' 
TCOON,ioos:station:TCOON:057:1,2009-06-08T22:00:00Z,28.4460,-96.3961,0.0,4.2,147.0,5.2,'11111222,11111222,11111222' 
TCOON,ioos:station:TCOON:057:1,2009-06-08T23:00:00Z,28.4460,-96.3961,0.0,4.4,123.0,5.2,'11111222,11111222,11111222' 
TCOON,ioos:station:TCOON:057:1,2009-06-09T00:00:00Z,28.4460,-96.3961,0.0,5.6,127.0,6.5,'11111222,11111222,11111222' 
TCOON,ioos:station:TCOON:057:1,2009-06-09T01:00:00Z,28.4460,-96.3961,0.0,7.3,129.0,8.3,'11111222,11111222,11111222' 
TCOON,ioos:station:TCOON:057:1,2009-06-09T02:00:00Z,28.4460,-96.3961,0.0,7.3,127.0,8.3,'11111222,11111222,11111222' 
TCOON,ioos:station:TCOON:057:1,2009-06-09T03:00:00Z,28.4460,-96.3961,0.0,7.3,138.0,8.3,'11111222,11111222,11111222' 
TCOON,ioos:station:TCOON:057:1,2009-06-09T04:00:00Z,28.4460,-96.3961,0.0,8.1,140.0,9.2,'11111222,11111222,11111222' 
TCOON,ioos:station:TCOON:057:1,2009-06-09T05:00:00Z,28.4460,-96.3961,0.0,7.9,136.0,8.9,'11111222,11111222,11111222' 
TCOON,ioos:station:TCOON:057:1,2009-06-09T06:00:00Z,28.4460,-96.3961,0.0,6.9,147.0,8.1,'11111222,11111222,11111222' 
TCOON,ioos:station:TCOON:057:1,2009-06-09T07:00:00Z,28.4460,-96.3961,0.0,8.3,147.0,9.4,'11111222,11111222,11111222' 
TCOON,ioos:station:TCOON:057:1,2009-06-09T08:00:00Z,28.4460,-96.3961,0.0,7.8,148.0,8.9,'11111222,11111222,11111222' 
TCOON,ioos:station:TCOON:057:1,2009-06-09T09:00:00Z,28.4460,-96.3961,0.0,7.8,154.0,8.8,'11111222,11111222,11111222' 
TCOON,ioos:station:TCOON:057:1,2009-06-09T10:00:00Z,28.4460,-96.3961,0.0,7.0,154.0,8.1,'11111222,11111222,11111222' 
TCOON,ioos:station:TCOON:057:1,2009-06-09T11:00:00Z,28.4460,-96.3961,0.0,7.5,158.0,8.8,'11111222,11111222,11111222' 
TCOON,ioos:station:TCOON:057:1,2009-06-09T12:00:00Z,28.4460,-96.3961,0.0,7.9,151.0,8.9,'11111222,11111222,11111222' 